TimeEST,TemperatureF,Dew PointF,Humidity,Sea Level PressureIn,VisibilityMPH,Wind Direction,Wind SpeedMPH,Gust SpeedMPH,PrecipitationIn,Events,Conditions,WindDirDegrees,DateUTC
12:58 AM,45.3,40.8,84,29.89,10.0,SSW,9.2,-,N/A,,Mostly Cloudy,200,2014-01-14 05:58:00
1:58 AM,43.9,41.4,91,29.87,10.0,South,9.2,-,N/A,,Mostly Cloudy,180,2014-01-14 06:58:00
2:58 AM,44.1,43.0,96,29.85,10.0,South,8.1,-,N/A,,Mostly Cloudy,190,2014-01-14 07:58:00
3:58 AM,45.1,44.6,98,29.82,10.0,South,9.2,-,N/A,,Scattered Clouds,180,2014-01-14 08:58:00
4:58 AM,45.9,45.3,98,29.83,10.0,South,10.4,-,N/A,,Scattered Clouds,190,2014-01-14 09:58:00
5:58 AM,46.0,45.5,98,29.82,10.0,South,8.1,-,N/A,,Partly Cloudy,190,2014-01-14 10:58:00
6:53 AM,46.4,44.6,93,29.81,10.0,South,8.1,-,N/A,,Light Drizzle,190,2014-01-14 11:53:00
6:58 AM,45.7,45.1,98,29.83,10.0,South,9.2,-,0.00,Rain,Light Rain,190,2014-01-14 11:58:00
7:58 AM,44.1,43.9,99,29.81,7.0,South,8.1,-,0.00,Rain,Light Rain,170,2014-01-14 12:58:00
8:58 AM,45.1,45.0,99,29.83,7.0,South,11.5,-,0.02,Rain,Light Rain,190,2014-01-14 13:58:00
9:58 AM,45.0,44.8,99,29.82,5.0,South,10.4,-,0.03,Rain,Light Rain,190,2014-01-14 14:58:00
10:03 AM,44.6,44.6,100,29.80,4.0,South,13.8,-,N/A,Rain,Light Rain,190,2014-01-14 15:03:00
10:58 AM,45.1,45.0,99,29.78,4.0,South,8.1,-,0.02,Rain,Light Rain,190,2014-01-14 15:58:00
11:31 AM,44.6,44.6,100,29.76,2.0,SSW,6.9,-,N/A,Rain,Light Rain,210,2014-01-14 16:31:00
11:58 AM,45.3,45.1,99,29.76,2.5,SSW,5.8,-,0.05,Rain,Light Rain,200,2014-01-14 16:58:00
12:58 PM,45.1,45.0,99,29.74,2.5,SSW,5.8,-,0.09,Rain,Light Rain,200,2014-01-14 17:58:00
1:58 PM,45.1,44.8,99,29.73,2.5,South,3.5,-,0.06,Rain,Light Rain,190,2014-01-14 18:58:00
2:58 PM,45.0,45.0,100,29.69,3.0,SSE,2.3,-,0.03,Rain,Light Rain,150,2014-01-14 19:58:00
3:58 PM,43.7,43.7,100,29.70,2.0,WNW,2.3,-,0.06,Fog-Rain,Light Rain,290,2014-01-14 20:58:00
4:03 PM,42.8,42.8,100,29.68,2.0,WNW,2.3,-,N/A,Fog-Rain,Rain,300,2014-01-14 21:03:00
4:06 PM,42.8,42.8,100,29.67,1.5,NW,2.3,-,N/A,Fog-Rain,Rain,320,2014-01-14 21:06:00
4:26 PM,42.8,42.8,100,29.66,1.0,NNW,4.6,-,N/A,Fog-Rain,Rain,340,2014-01-14 21:26:00
4:41 PM,44.6,44.6,100,29.67,0.8,NW,3.5,-,N/A,Fog-Rain,Light Rain,320,2014-01-14 21:41:00
4:58 PM,42.8,42.8,100,29.70,1.5,WNW,4.6,-,0.07,Fog-Rain,Light Rain,290,2014-01-14 21:58:00
5:19 PM,42.8,42.8,100,29.67,1.8,North,3.5,-,N/A,Fog-Rain,Light Rain,360,2014-01-14 22:19:00
5:58 PM,42.3,42.3,100,29.68,1.2,North,3.5,-,0.08,Fog-Rain,Light Rain,10,2014-01-14 22:58:00
6:08 PM,42.8,42.8,100,29.65,1.0,North,2.3,-,N/A,Fog-Rain,Light Rain,10,2014-01-14 23:08:00
6:35 PM,41.0,41.0,100,29.66,2.0,WNW,2.3,-,N/A,Fog-Rain,Light Rain,290,2014-01-14 23:35:00
6:58 PM,41.5,41.5,100,29.70,3.0,WNW,4.6,-,0.06,Rain,Light Rain,290,2014-01-14 23:58:00
7:36 PM,42.8,42.8,100,29.66,1.5,NNE,2.3,-,N/A,Fog-Rain,Light Rain,20,2014-01-15 00:36:00
7:42 PM,41.0,41.0,100,29.65,3.0,ENE,2.3,-,N/A,Fog-Rain,Light Rain,70,2014-01-15 00:42:00
7:48 PM,41.0,41.0,100,29.68,8.0,SSE,2.3,-,N/A,Fog-Rain,Light Rain,160,2014-01-15 00:48:00
7:58 PM,40.1,40.1,100,29.70,6.0,Calm,Calm,-,0.01,Fog-Rain,Light Rain,0,2014-01-15 00:58:00
8:58 PM,39.7,39.7,100,29.73,9.0,West,8.1,-,0.00,,Scattered Clouds,270,2014-01-15 01:58:00
9:32 PM,41.0,41.0,100,29.73,10.0,WSW,5.8,-,N/A,Rain,Light Rain,250,2014-01-15 02:32:00
9:58 PM,41.7,41.7,100,29.78,8.0,WNW,10.4,-,0.01,Rain,Light Rain,290,2014-01-15 02:58:00
10:30 PM,41.0,41.0,100,29.77,10.0,West,5.8,-,N/A,,Mostly Cloudy,270,2014-01-15 03:30:00
10:58 PM,40.6,40.3,99,29.81,10.0,WNW,16.1,20.7,0.02,,Mostly Cloudy,300,2014-01-15 03:58:00
11:58 PM,37.4,36.9,98,29.81,10.0,West,3.5,-,N/A,,Clear,280,2014-01-15 04:58:00